Showing default

FLOCK 4Q 26, 58284

Orbit data source: Space-Track

FLOCK 4Q 26, 58284 is a payload satellite owned by Planet (US) in SSO that was launched on Sat, 11 Nov 2023 UTC via an FALCON 9 launch vehicle from the Air Force Western Test Range (AFWTR). Payload-class satellites include a variety of spacecraft equipped with specific instruments for various scientific and technological missions. These include communications satellites like Starlink; space stations such as the ISS; scientific satellites like the Hubble; Earth observation satellites from companies like Planet Labs, Umbra, and HawkEye 360; GPS; miniature CubeSats for education and research; and military/defense satellites.

Not visible in the next 10 days
Identifier
58284, 2023-174AE
Orbit
SSO
Country
Flag of USUS
Related business
Manufacturer
Planet
Mission
Non-operational Commercial Imaging
Bus & Motor
CUBESAT 3U, Unknown motor
Mass
5.7 kg wet, 5.7 kg dry
Launch date (UTC)
2023-11-11 (3 years ago)
Launch vehicle
FALCON 9
Launch site
Air Force Western Test Range (AFWTR)
Object type
Payload
Rocket body
Debris
Shape & HBR
Box + 2 Pan, 1.0 m
Radar Cross Section
0.072 m², Medium (>0.1 m² and < 1m²)

Expand to show TLE details & history
Last TLE update: 1 day ago

TLE from 1 day ago
0 FLOCK 4Q 26
1 58284U 23174AE  26235.78225268  .00889378  34049-3  26016-2 0  9995
2 58284  97.3769 331.9682 0010851 238.9224 121.0986 15.92725739156433
Epoch: 2026-08-23T18:46Z
TLE epoch observation values (Epoch: 2026-08-23T18:46:26.631Z)
Latitude
-0.00002°
Longitude
78.28387°
Altitude
301.595 km
Speed
7.725 km/s
True Right ascension
22h 07m 52s
True Declination
0° 00' 00"
Sunlit
Object was in full shadow at epoch
Visualization orbit readout
Latitude
Unknown
Longitude
Unknown
Altitude
Unknown
Speed
Unknown
Apparent Right ascension
Unknown
Apparent Declination
Unknown
Sunlit
N/A
Visualization observer readout
Local Sidereal Time
21:11:55
Azimuth
Unknown
Elevation
Unknown
Doppler factor
Unknown
Orbital elements
Apogee altitude
298.764 km
Perigee altitude
284.29 km
Semi-major axis
6,669.664 km
Eccentricity
0.00109
Inclination
97.3769°
RAAN
331.9682°
Arg. of periapsis
238.9224°
True anomaly
121.205°
Mean anomaly
121.0986°
Eccentric anomaly
121.15181°
Mean motion
3.98462 °/min
Orbital period
90.35 mins
BSTAR
0.0026016
Loading maneuver chart data...
Computing Atmospheric mass density...

Documentation

Showing up to 5 results
|